Location: Alladorf
(49.9620°N, 11.3790°E)
Time: 20:46:26
(UTC+00:00)

Meteor 1-27 Rocket - Pass Details

Date: 29 November 2020
Orbit: 830 x 909 km, 81.3° (Epoch: 24 January)

Event Time Altitude Azimuth Distance (km) Brightness Sun altitude
Rises 05:10:12 0° 348° (NNW) 3,465 6.6 -15.2°
Reaches altitude 10° 05:12:38 10° 349° (N) 2,535 5.9 -14.8°
Maximum altitude 05:18:25 84° 77° (ENE) 899 3.9 -13.9°
Drops below altitude 10° 05:24:17 10° 167° (SSE) 2,566 6.6 -13.0°
Sets 05:26:45 0° 168° (SSE) 3,511 7.4 -12.7°
